Regional Weather Roundup
Issued by NWS

Home | Current Version | Previous Version | Text Only | Print | Product List | Glossary Off
Versions: 1 2 3 4 5 6 7 8 9 10 11 12 13 14 15 16 17 18 19 20 21 22 23 24 25 26 27 28 29 30 31 32 33 34 35 36 37 38 39 40 41 42 43 44 45 46 47 48 49 50

000
ASUS45 KABQ 032110
RWRNM
NEW MEXICO REGIONAL WEATHER ROUNDUP
NATIONAL WEATHER SERVICE ALBUQUERQUE NM
300 PM MDT FRI JUL 03 2015

NOTE: "FAIR" MEANS FEW OR NO CLOUDS BELOW 12,000 FEET AGL WITH NO
       SIGNIFICANT WEATHER OR OBSTRUCTIONS TO VISION.

      THIS PRODUCT IS RELEASED AS TWO VERSIONS.  ONE VERSION NEAR
      THE TOP OF THE HOUR CONTAINING PRELIMINARY DATA FROM ALBUQUERQUE
      AND OTHER STATIONS.  A FINAL VERSION WITH ADDITIONAL DATA IS
      ISSUED ABOUT 10 MINUTES AFTER THE HOUR.

NMZ501-503-504-510>518-032200-
NORTHWEST PLATEAU/NORTHCENTRAL MOUNTAINS

CITY           SKY/WX    TMP DP  RH WIND       PRES   REMARKS
FARMINGTON     SUNNY     90  51  26 VRB3      30.08F
LOS ALAMOS     RAIN      66  57  71 W17       30.29R
SANTA FE       PTSUNNY   81  51  35 VRB3      30.19F
TAOS           CLOUDY    64  48  55 N6        30.30S
ANGEL FIRE     MOCLDY    63  51  64 S9        30.39R

$$
NMZ402-403-502-505>509-032200-
WESTCENTRAL MOUNTAINS/SOUTHWEST MOUNTAINS

CITY           SKY/WX    TMP DP  RH WIND       PRES   REMARKS
GALLUP         MOSUNNY   88  47  24 N8        30.16F
GRANTS         MOSUNNY   82  48  30 CALM      30.20F
SILVER CITY      N/A     86  50  28 SW5       30.14F

$$
NMZ407-409-411-412-032200-
SOUTHERN DESERTS

CITY           SKY/WX    TMP DP  RH WIND       PRES   REMARKS
LORDSBURG      FAIR      90  54  29 SE7       30.03F
DEMING         MOSUNNY   92  53  26 VRB5      30.03F
LAS CRUCES     SUNNY     90  55  30 NE8       30.06F
HOLLOMAN AFB   PTSUNNY   90  53  27 E5        30.00F
ALAMOGORDO     PTSUNNY   88  54  31 NE3       30.03F
T OR C         MOSUNNY   90  53  28 SE7       30.06F

$$
NMZ519>523-032200-
CENTRAL VALLEYS/CENTRAL HIGHLANDS

CITY           SKY/WX    TMP DP  RH WIND       PRES   REMARKS
ALBUQUERQUE    PTSUNNY   87  55  33 VRB3      30.12F
DOUBLE EAGLE   PTSUNNY   82  57  42 VRB6      30.16F
MORIARTY ARPT    N/A     82  52  35 SW7       30.20F
CLINES CORNERS PTSUNNY   75  52  44 CALM      30.24F
BELEN          FAIR      88  52  28 E9        30.10F
SOCORRO        FAIR      87  55  32 CALM      30.07F

$$
NMZ524>526-539-540-032200-
SOUTHCENTRAL MOUNTAINS

CITY           SKY/WX    TMP DP  RH WIND       PRES   REMARKS
RUIDOSO        MOSUNNY   73  55  53 E5        30.26F

$$
NMZ527>531-032200-
NORTHEAST HIGHLANDS/NORTHEAST PLAINS

CITY           SKY/WX    TMP DP  RH WIND       PRES   REMARKS
LAS VEGAS      PTSUNNY   74  56  53 S8        30.24F
RATON          PTSUNNY   74  58  57 SW10      30.19F
CLAYTON        MOSUNNY   89  50  26 S6        30.11F

$$
NMZ532>537-032200-
EASTCENTRAL PLAINS

CITY           SKY/WX    TMP DP  RH WIND       PRES   REMARKS
TUCUMCARI      MOSUNNY   88  55  32 S8        30.05F
CANNON AFB     PTSUNNY   85  60  42 VRB3      30.08F
CLOVIS AIRPORT PTSUNNY   84  55  37 SE7         N/A

$$
NMZ028-029-538-032200-
SOUTHEAST PLAINS

CITY           SKY/WX    TMP DP  RH WIND       PRES   REMARKS
ROSWELL        CLOUDY    81  64  56 N7        30.04F
ARTESIA        CLOUDY    86  59  39 NW12G17   30.04F
CARLSBAD       PTSUNNY   80  62  54 NW14      30.01F
HOBBS          PTSUNNY   86  59  39 E16       30.04S


$$



USA.gov is the U.S. government's official web portal to all federal, state and local government web resources and services.